| time (UTC) | temp C | wind direction | speed KPH | gust KPH | rain 1hr cm | rain 24hr cm | rain mn cm | humidity % | barometer mb |
| 20260508181610 | 5 | 306 | 8.0 | 12.9 | 0.00 | 1.75 | 0.00 | 95 | 1002.1 |
| 20260508180053 | 5 | 342 | 8.0 | 12.9 | 0.00 | 1.75 | 0.00 | 96 | 1002.1 |
| 20260508174551 | 4 | 2 | 4.8 | 8.0 | 0.00 | 2.34 | 0.00 | 95 | 1002.2 |
| 20260508173053 | 4 | 342 | 4.8 | 8.0 | 0.00 | 2.34 | 0.00 | 95 | 1002.4 |
| 20260508171553 | 4 | 317 | 6.4 | 9.7 | 0.00 | 2.34 | 0.00 | 95 | 1002.5 |
| 20260508170050 | 3 | 309 | 4.8 | 11.3 | 0.00 | 2.34 | 0.00 | 95 | 1002.5 |
| 20260508164548 | 5 | 292 | 6.4 | 14.5 | 0.00 | 2.39 | 0.00 | 96 | 1002.5 |
| 20260508163049 | 5 | 336 | 9.7 | 16.1 | 0.00 | 2.39 | 0.00 | 96 | 1002.2 |
| 20260508161546 | 5 | 330 | 6.4 | 14.5 | 0.00 | 2.39 | 0.00 | 95 | 1001.9 |
| 20260508160045 | 5 | 6 | 8.0 | 14.5 | 0.00 | 2.39 | 0.00 | 95 | 1001.8 |
| 20260508154544 | 5 | 335 | 9.7 | 14.5 | 0.00 | 2.39 | 0.00 | 96 | 1002.1 |
| 20260508153042 | 5 | 357 | 8.0 | 14.5 | 0.00 | 2.39 | 0.00 | 96 | 1002.1 |
| 20260508151545 | 5 | 338 | 6.4 | 12.9 | 0.00 | 2.39 | 0.00 | 95 | 1002.2 |
| 20260508150046 | 5 | 352 | 9.7 | 16.1 | 0.00 | 2.39 | 0.00 | 96 | 1002.3 |
| 20260508144638 | 5 | 328 | 9.7 | 14.5 | 0.00 | 2.39 | 0.00 | 96 | 1002.3 |
| 20260508143044 | 5 | 347 | 8.0 | 12.9 | 0.00 | 2.39 | 0.00 | 96 | 1002.3 |
| 20260508141538 | 5 | 320 | 6.4 | 12.9 | 0.00 | 2.39 | 0.00 | 96 | 1002.3 |
| 20260508140042 | 5 | 347 | 3.2 | 9.7 | 0.00 | 2.39 | 0.00 | 96 | 1002.6 |
| 20260508134533 | 5 | 328 | 4.8 | 9.7 | 0.00 | 2.39 | 0.00 | 95 | 1002.7 |
| 20260508133037 | 5 | 330 | 6.4 | 14.5 | 0.00 | 2.39 | 0.00 | 96 | 1002.4 |
| 20260508131534 | 5 | 347 | 8.0 | 14.5 | 0.00 | 2.39 | 0.00 | 96 | 1002.2 |
| 20260508130030 | 5 | 347 | 8.0 | 12.9 | 0.00 | 2.39 | 0.00 | 96 | 1001.9 |
| 20260508124527 | 6 | 7 | 6.4 | 9.7 | 0.00 | 2.39 | 0.00 | 97 | 1001.8 |
| 20260508123025 | 5 | 28 | 6.4 | 9.7 | 0.00 | 2.39 | 0.00 | 97 | 1002.1 |
| 20260508121523 | 5 | 3 | 4.8 | 9.7 | 0.00 | 2.39 | 0.00 | 97 | 1002.4 |
| 20260508120021 | 5 | 347 | 6.4 | 9.7 | 0.00 | 2.39 | 0.00 | 97 | 1002.3 |
| 20260508114527 | 5 | 6 | 6.4 | 11.3 | 0.00 | 2.39 | 0.00 | 96 | 1002.3 |
| 20260508113012 | 6 | 337 | 8.0 | 12.9 | 0.00 | 2.39 | 0.00 | 97 | 1002.4 |
| 20260508111511 | 6 | 306 | 0.0 | 1.6 | 0.00 | 2.39 | 0.00 | 97 | 1002.3 |
| 20260508110005 | 6 | 239 | 0.0 | 1.6 | 0.00 | 2.39 | 0.00 | 98 | 1002.7 |
| 20260508104503 | 5 | 60 | 0.0 | 1.6 | 0.00 | 2.39 | 0.00 | 97 | 1002.6 |
| 20260508103001 | 5 | 60 | 0.0 | 0.0 | 0.00 | 2.39 | 0.00 | 97 | 1002.7 |
| 20260508101559 | 5 | 60 | 0.0 | 0.0 | 0.00 | 2.39 | 0.00 | 97 | 1002.7 |
| 20260508100057 | 4 | 60 | 0.0 | 3.2 | 0.00 | 2.39 | 0.00 | 97 | 1002.4 |
| 20260508094553 | 4 | 60 | 1.6 | 4.8 | 0.00 | 2.39 | 0.00 | 97 | 1002.2 |
| 20260508093055 | 3 | 328 | 0.0 | 3.2 | 0.00 | 2.39 | 0.00 | 97 | 1002.4 |
| 20260508091549 | 3 | 328 | 0.0 | 1.6 | 0.00 | 2.39 | 0.00 | 97 | 1002.3 |
| 20260508090050 | 3 | 328 | 0.0 | 0.0 | 0.00 | 2.39 | 0.00 | 97 | 1002.1 |
| 20260508084547 | 3 | 328 | 1.6 | 4.8 | 0.00 | 2.39 | 0.00 | 96 | 1001.9 |
| 20260508083043 | 4 | 328 | 0.0 | 6.4 | 0.00 | 2.39 | 0.00 | 96 | 1001.8 |
| 20260508081545 | 4 | 5 | 1.6 | 3.2 | 0.00 | 2.39 | 0.00 | 96 | 1001.4 |
| 20260508080040 | 5 | 5 | 1.6 | 4.8 | 0.00 | 2.39 | 0.00 | 96 | 1001.5 |
| 20260508074539 | 5 | 12 | 0.0 | 4.8 | 0.00 | 2.39 | 0.00 | 96 | 1001.5 |
| 20260508073036 | 5 | 332 | 0.0 | 3.2 | 0.00 | 2.39 | 0.00 | 96 | 1001.8 |
| 20260508071540 | 5 | 332 | 0.0 | 1.6 | 0.00 | 2.39 | 0.00 | 96 | 1001.7 |
| 20260508070038 | 5 | 332 | 0.0 | 6.4 | 0.00 | 2.39 | 0.00 | 96 | 1001.9 |
| 20260508064557 | 5 | 74 | 0.0 | 0.0 | 0.00 | 2.39 | 0.00 | 97 | 1001.8 |
| 20260508063036 | 5 | 74 | 0.0 | 0.0 | 0.00 | 2.39 | 0.00 | 96 | 1001.7 |
| 20260508061535 | 5 | 74 | 0.0 | 1.6 | 0.00 | 2.39 | 0.00 | 97 | 1001.9 |
| 20260508060037 | 5 | 74 | 0.0 | 6.4 | 0.00 | 2.39 | 0.00 | 96 | 1001.8 |
| 20260508054552 | 5 | 57 | 3.2 | 8.0 | 0.00 | 2.39 | 0.00 | 96 | 1002.1 |
| 20260508053158 | 5 | 32 | 4.8 | 9.7 | 0.00 | 2.39 | 0.00 | 96 | 1002.4 |
| 20260508051529 | 5 | 352 | 3.2 | 6.4 | 0.00 | 2.39 | 0.00 | 96 | 1002.3 |
| 20260508050034 | 6 | 31 | 6.4 | 12.9 | 0.00 | 2.39 | 0.00 | 96 | 1002.2 |
| 20260508044527 | 6 | 22 | 3.2 | 6.4 | 0.00 | 2.39 | 0.00 | 96 | 1002.0 |
| 20260508043031 | 5 | 49 | 4.8 | 9.7 | 0.00 | 2.39 | 0.00 | 96 | 1002.0 |
| 20260508041523 | 5 | 352 | 8.0 | 16.1 | 0.00 | 2.39 | 0.00 | 96 | 1002.5 |
| 20260508040019 | 5 | 357 | 4.8 | 14.5 | 0.00 | 2.39 | 0.00 | 94 | 1002.4 |
| 20260508034522 | 6 | 352 | 1.6 | 6.4 | 0.00 | 2.39 | 0.00 | 95 | 1002.4 |
| 20260508033013 | 7 | 313 | 8.0 | 12.9 | 0.00 | 2.39 | 0.00 | 95 | 1002.3 |
| 20260508031509 | 8 | 113 | 0.0 | 0.0 | 0.03 | 2.39 | 0.00 | 96 | 1002.1 |
| 20260508030006 | 8 | 113 | 0.0 | 4.8 | 0.03 | 2.39 | 2.39 | 96 | 1002.0 |
| 20260508024507 | 8 | 113 | 1.6 | 8.0 | 0.05 | 2.39 | 2.39 | 96 | 1002.1 |
| 20260508023004 | 8 | 105 | 8.0 | 12.9 | 0.08 | 2.39 | 2.39 | 96 | 1001.9 |
| 20260508021503 | 8 | 194 | 0.0 | 1.6 | 0.08 | 2.36 | 2.36 | 96 | 1002.4 |
| 20260508020002 | 8 | 194 | 0.0 | 6.4 | 0.15 | 2.36 | 2.36 | 96 | 1002.5 |
| 20260508014502 | 8 | 140 | 3.2 | 6.4 | 0.15 | 2.34 | 2.34 | 96 | 1002.6 |
| 20260508013001 | 8 | 232 | 3.2 | 4.8 | 0.18 | 2.31 | 2.31 | 96 | 1002.7 |
| 20260508011616 | 8 | 232 | 3.2 | 4.8 | 0.23 | 2.29 | 2.29 | 95 | 1002.6 |
| 20260508010104 | 7 | 232 | 1.6 | 6.4 | 0.20 | 2.21 | 2.21 | 95 | 1002.4 |
| 20260508004558 | 8 | 201 | 4.8 | 8.0 | 0.20 | 2.18 | 2.18 | 95 | 1002.6 |
| 20260508003058 | 7 | 191 | 3.2 | 9.7 | 0.18 | 2.11 | 2.11 | 95 | 1002.5 |
| 20260508001557 | 7 | 214 | 4.8 | 11.3 | 0.15 | 2.06 | 2.06 | 95 | 1002.6 |
| 20260508000116 | 7 | 197 | 6.4 | 11.3 | 0.10 | 2.03 | 2.03 | 94 | 1002.7 |
| 20260507234556 | 7 | 188 | 3.2 | 19.3 | 0.05 | 1.98 | 1.98 | 95 | 1002.4 |
| 20260507233054 | 7 | 229 | 11.3 | 27.4 | 0.03 | 1.93 | 1.93 | 94 | 1002.2 |
| 20260507231558 | 7 | 285 | 19.3 | 29.0 | 0.00 | 1.93 | 1.93 | 91 | 1001.7 |
| 20260507230049 | 12 | 268 | 24.1 | 35.4 | 0.00 | 1.93 | 1.93 | 84 | 1001.5 |
| 20260507224551 | 13 | 194 | 4.8 | 11.3 | 0.00 | 1.93 | 1.93 | 88 | 1000.8 |
| 20260507223046 | 13 | 166 | 11.3 | 14.5 | 0.00 | 1.93 | 1.93 | 88 | 1000.9 |
| 20260507221545 | 13 | 158 | 9.7 | 16.1 | 0.00 | 1.93 | 1.93 | 87 | 1000.9 |
| 20260507220045 | 13 | 174 | 9.7 | 19.3 | 0.00 | 1.93 | 1.93 | 87 | 1000.6 |
| 20260507214547 | 13 | 170 | 11.3 | 24.1 | 0.00 | 1.93 | 1.93 | 87 | 1000.6 |
| 20260507213044 | 13 | 170 | 14.5 | 25.7 | 0.00 | 1.93 | 1.93 | 86 | 1000.6 |
| 20260507211551 | 13 | 143 | 20.9 | 30.6 | 0.00 | 1.93 | 1.93 | 87 | 1000.5 |
| 20260507210047 | 13 | 149 | 14.5 | 22.5 | 0.05 | 1.93 | 1.93 | 88 | 1000.5 |
| 20260507204542 | 13 | 145 | 4.8 | 19.3 | 0.15 | 1.93 | 1.93 | 89 | 1000.5 |
| 20260507203042 | 13 | 175 | 16.1 | 35.4 | 0.25 | 1.93 | 1.93 | 89 | 1000.3 |
| 20260507201539 | 13 | 153 | 17.7 | 33.8 | 0.38 | 1.93 | 1.93 | 89 | 1000.1 |
| 20260507200040 | 12 | 128 | 22.5 | 35.4 | 0.48 | 1.88 | 1.88 | 91 | 999.8 |
| 20260507194537 | 12 | 137 | 22.5 | 35.4 | 0.53 | 1.78 | 1.78 | 91 | 1000.8 |
| 20260507193030 | 12 | 134 | 17.7 | 27.4 | 0.61 | 1.65 | 1.65 | 91 | 1001.9 |
| 20260507191529 | 12 | 167 | 12.9 | 22.5 | 0.71 | 1.55 | 1.55 | 91 | 1002.7 |
| 20260507190030 | 13 | 161 | 14.5 | 32.2 | 0.79 | 1.40 | 1.40 | 91 | 1002.5 |
| 20260507184525 | 13 | 166 | 20.9 | 35.4 | 0.86 | 1.24 | 1.24 | 92 | 1003.0 |
| 20260507183025 | 12 | 177 | 17.7 | 37.0 | 0.86 | 1.04 | 1.04 | 92 | 1002.9 |